M I D A S
Marine Information and Data Acquisition System
Tripno 2141 of the Zeeleeuw from 2011-07-08 05:02:26 to 2011-07-08 15:22:40
Back to CruiseResearch ActivitiesStationsMapUnderway DataData graphs

EquipmentUnitsComment
TimeDGPSUTC
LatitudeDGPSDM.mWGS84
LongitudeDGPSDM.mWGS84
TemperatureSBE03/SBE38deg celciusITS90
ConductivitySBE21S/mITS90
SalinitySBE21 Practical Salinity Units
ChlorophylAChelsea fluorimeterg/lCalibrated in Aceton
Missing or incorrect values are displayed as -999
Sea surface data collected by the RV Zeeleeuw from 2011-07-08 05:06:23 to 2011-07-08 15:38:19
Time Latitude Longitude Temperature Conductivity Salinity ChlorophylA
2011-07-08 05:07:28 51°13.661 2°55.921 22.1495 0.176588 0.976245 -3.020363
2011-07-08 05:08:29 51°13.688 2°55.803 22.1584 0.176588 0.976381 -3.020363
2011-07-08 05:09:28 51°13.696 2°55.735 22.1634 0.176588 0.976432 -3.020363
2011-07-08 05:10:26 51°13.722 2°55.744 22.2099 0.176588 0.976415 -3.020363
2011-07-08 05:11:24 51°13.785 2°55.692 22.121 0.176588 0.9765 -3.020363
2011-07-08 05:12:26 51°13.908 2°55.587 22.1625 0.176588 0.976653 -3.020363
2011-07-08 05:13:25 51°14.055 2°55.481 22.156 0.176588 0.976738 -3.020363
2011-07-08 05:14:25 51°14.209 2°55.359 22.1728 0.176485 0.976277 -3.020363
2011-07-08 05:15:25 51°14.366 2°55.201 22.1609 0.176485 0.976465 -3.020363
2011-07-08 05:16:25 51°14.533 2°55.024 22.1239 0.176485 0.97655 -3.020363
2011-07-08 05:17:25 51°14.724 2°54.865 22.1552 0.176485 0.976601 -3.020363
2011-07-08 05:18:25 51°14.904 2°54.681 22.1504 0.176485 0.976652 -3.020363
2011-07-08 05:19:25 51°15.08 2°54.488 22.1211 0.176485 0.976737 -3.020363
2011-07-08 05:20:24 51°15.256 2°54.302 22.1407 0.176485 0.976839 -3.020363
2011-07-08 05:21:25 51°15.431 2°54.096 22.1341 0.176485 0.976925 -3.020363
2011-07-08 05:22:25 51°15.597 2°53.886 22.1447 0.176485 0.976993 -3.020363
2011-07-08 05:23:25 51°15.748 2°53.654 22.1342 0.176485 0.977095 -3.020363
2011-07-08 05:24:25 51°15.911 2°53.437 22.1183 0.176485 0.977197 -3.020363
2011-07-08 05:25:25 51°16.085 2°53.242 22.1252 0.176382 0.976753 -3.020363
2011-07-08 05:26:25 51°16.283 2°53.096 22.1231 0.176382 0.976856 -3.020363
2011-07-08 05:27:25 51°16.479 2°52.948 22.1257 0.176382 0.976992 -3.020363
2011-07-08 05:28:25 51°16.67 2°52.788 22.1216 0.176382 0.977112 -3.020363
2011-07-08 05:29:25 51°16.866 2°52.638 22.1395 0.176382 0.977248 -3.020363
2011-07-08 05:30:25 51°17.063 2°52.488 22.135 0.176382 0.977333 -3.020363
2011-07-08 05:31:25 51°17.255 2°52.324 22.1512 0.176279 0.976855 -3.020363
2011-07-08 05:32:25 51°17.453 2°52.173 22.1433 0.176279 0.977026 -3.020363
2011-07-08 05:33:25 51°17.654 2°52.027 22.1449 0.176279 0.977145 -3.020363
2011-07-08 05:34:25 51°17.852 2°51.874 22.1583 0.176279 0.977282 -3.020363
2011-07-08 05:35:24 51°18.04 2°51.709 22.1533 0.176279 0.977419 -3.020363
2011-07-08 05:36:25 51°18.241 2°51.55 22.1589 0.176279 0.977538 -3.020363
2011-07-08 05:37:25 51°18.441 2°51.402 22.173 0.176279 0.977709 -3.020363
2011-07-08 05:38:24 51°18.634 2°51.247 22.1694 0.176176 0.97723 -3.020363
2011-07-08 05:39:25 51°18.832 2°51.086 22.1717 0.176176 0.97735 -3.020363
2011-07-08 05:40:25 51°19.029 2°50.934 22.1724 0.176176 0.97747 -3.020363
2011-07-08 05:41:25 51°19.233 2°50.801 22.1872 0.176176 0.977573 -3.020363
2011-07-08 05:42:25 51°19.436 2°50.671 22.1992 0.176176 0.97771 -3.020363
2011-07-08 05:43:25 51°19.634 2°50.532 22.1994 0.176176 0.977812 -3.020363
2011-07-08 05:44:25 51°19.838 2°50.404 22.2075 0.176176 0.977949 -3.020363
2011-07-08 05:45:25 51°20.043 2°50.275 22.2168 0.176176 0.978035 -3.020363
2011-07-08 05:46:25 51°20.242 2°50.135 22.2241 0.176176 0.978103 -3.020363
2011-07-08 05:47:24 51°20.443 2°50.005 22.228 0.176074 0.97759 -3.020363
2011-07-08 05:48:25 51°20.671 2°49.944 22.2329 0.176074 0.977795 -3.020363
2011-07-08 05:49:24 51°20.899 2°50.002 22.2658 0.176074 0.977881 -3.020363
2011-07-08 05:50:24 51°21.125 2°50.094 22.2519 0.176074 0.97807 -3.020363
2011-07-08 05:51:25 51°21.359 2°50.18 22.2663 0.176074 0.978207 -3.020363
2011-07-08 05:52:24 51°21.583 2°50.256 22.2846 0.175971 0.977539 -3.020363
2011-07-08 05:53:25 51°21.815 2°50.29 22.3006 0.175971 0.97759 -3.020363
2011-07-08 05:54:25 51°22.037 2°50.244 22.3223 0.175971 0.977436 -3.020363
2011-07-08 05:55:25 51°22.258 2°50.182 22.3391 0.175971 0.97771 -3.020363
2011-07-08 05:56:24 51°22.475 2°50.126 22.354 0.175971 0.977573 -3.020363
2011-07-08 05:57:25 51°22.699 2°50.069 22.3706 0.175971 0.977522 -3.020363
2011-07-08 05:58:24 51°22.919 2°50.011 22.3835 0.175971 0.977727 -3.020363
2011-07-08 05:59:24 51°23.142 2°49.953 22.4054 0.175971 0.97783 -3.020363
2011-07-08 06:00:25 51°23.368 2°49.89 22.4167 0.175971 0.977865 -3.020363
2011-07-08 06:01:24 51°23.585 2°49.823 22.4439 0.175971 0.978311 -3.020363
2011-07-08 06:02:25 51°23.81 2°49.757 22.462 0.175971 0.978242 -3.020363
2011-07-08 06:03:25 51°24.033 2°49.697 22.4871 0.175971 0.978448 -3.020363
2011-07-08 06:04:25 51°24.256 2°49.637 22.557 0.175868 0.977934 -3.020363
2011-07-08 06:05:25 51°24.478 2°49.575 22.5355 0.175868 0.978037 -3.020363
2011-07-08 06:06:25 51°24.698 2°49.511 22.5379 0.175868 0.978157 -3.020363
2011-07-08 06:07:25 51°24.92 2°49.447 22.542 0.175868 0.978226 -3.020363
2011-07-08 06:08:25 51°25.141 2°49.389 22.5472 0.175868 0.97838 -3.020363
2011-07-08 06:09:25 51°25.36 2°49.308 22.5526 0.175868 0.978484 -3.020363
2011-07-08 06:10:25 51°25.575 2°49.216 22.5591 0.175868 0.978552 -3.020363
2011-07-08 06:11:25 51°25.795 2°49.133 22.5659 0.175868 0.978655 -3.020363
2011-07-08 06:12:24 51°26.01 2°49.046 22.572 0.175868 0.978759 -3.020363
2011-07-08 06:13:25 51°26.232 2°48.955 22.5778 0.175765 0.978278 -3.020363
2011-07-08 06:14:24 51°26.446 2°48.866 22.5833 0.175765 0.978416 -3.020363
2011-07-08 06:15:24 51°26.661 2°48.768 22.5881 0.175765 0.978519 -3.020363
2011-07-08 06:16:25 51°26.88 2°48.671 22.5942 0.175765 0.978691 -3.020363
2011-07-08 06:17:25 51°27.096 2°48.579 22.5994 0.175765 0.978795 -3.020363
2011-07-08 06:18:25 51°27.312 2°48.481 22.605 0.175765 0.978932 -3.020363
2011-07-08 06:19:25 51°27.527 2°48.389 22.6086 0.175662 0.978469 -3.020363
2011-07-08 06:20:25 51°27.743 2°48.3 22.6129 0.175662 0.978624 -3.020363
2011-07-08 06:21:24 51°27.957 2°48.21 22.6162 0.175662 0.978779 -3.020363
2011-07-08 06:22:25 51°28.178 2°48.118 22.6238 0.175662 0.978934 -3.020363
2011-07-08 06:23:24 51°28.391 2°48.027 22.6293 0.175662 0.979072 -3.020363
2011-07-08 06:24:24 51°28.609 2°47.948 22.6339 0.175662 0.979193 -3.020363
2011-07-08 06:25:25 51°28.831 2°47.869 22.6391 0.175662 0.979365 -3.020363
2011-07-08 06:26:25 51°29.047 2°47.778 22.6435 0.175662 0.979469 -3.020363
2011-07-08 06:27:25 51°29.261 2°47.678 22.6484 0.17556 0.979074 -3.020363
2011-07-08 06:28:24 51°29.471 2°47.589 22.6507 0.17556 0.979126 -3.020363
2011-07-08 06:29:25 51°29.692 2°47.494 22.6549 0.17556 0.979333 -3.020363
2011-07-08 06:30:24 51°29.907 2°47.406 22.6588 0.17556 0.979436 -3.020363
2011-07-08 06:31:25 51°30.128 2°47.312 22.6634 0.17556 0.979626 -3.020363
2011-07-08 06:32:25 51°30.342 2°47.218 22.6668 0.175457 0.97918 -3.020363
2011-07-08 06:33:24 51°30.553 2°47.122 22.6679 0.175457 0.979301 -3.020363
2011-07-08 06:34:24 51°30.767 2°47.028 22.6709 0.175457 0.979456 -3.020363
2011-07-08 06:35:25 51°30.987 2°46.942 17.1476 4.144213 30.728432 -3.020363
2011-07-08 06:36:25 51°31.202 2°46.858 17.0555 4.462373 34.403566 -3.020363
2011-07-08 06:37:24 51°31.419 2°46.777 17.0349 4.48364 34.701602 -3.020363
2011-07-08 06:38:25 51°31.643 2°46.684 17.0232 4.484885 34.755346 -3.020363
2011-07-08 06:39:24 51°31.857 2°46.595 16.9994 4.483745 34.764178 -3.020363
2011-07-08 06:40:25 51°32.08 2°46.506 16.9891 4.481878 34.772273 -3.020363
2011-07-08 06:41:25 51°32.296 2°46.416 16.9652 4.479907 34.769742 -3.020363
2011-07-08 06:42:24 51°32.508 2°46.323 16.9243 4.475032 34.749604 -3.020363
2011-07-08 06:43:24 51°32.729 2°46.233 16.8579 4.472958 34.769839 -3.020363
2011-07-08 06:44:25 51°32.952 2°46.145 16.8108 4.469536 34.798628 -3.020363
2011-07-08 06:45:25 51°33.17 2°46.052 16.7597 4.46715 34.819081 -3.020363
2011-07-08 06:46:25 51°33.389 2°45.954 16.7285 4.463002 34.821377 -3.020363
2011-07-08 06:47:24 51°33.606 2°45.866 16.6982 4.460409 34.828173 -3.020363
2011-07-08 06:48:24 51°33.827 2°45.778 16.6939 4.458853 34.830011 -3.020363
2011-07-08 06:49:24 51°34.045 2°45.683 16.6823 4.457505 34.829452 -3.020363
2011-07-08 06:50:25 51°34.267 2°45.589 16.6807 4.456364 34.829305 -3.020363
2011-07-08 06:51:24 51°34.479 2°45.496 16.6688 4.455846 34.828982 -3.020363
2011-07-08 06:52:24 51°34.694 2°45.411 16.6548 4.455016 34.828747 -3.020363
2011-07-08 06:53:24 51°34.908 2°45.324 16.6489 4.454186 34.834844 -3.020363
2011-07-08 06:54:25 51°35.128 2°45.229 16.6328 4.453149 34.834905 -3.020363
2011-07-08 06:55:25 51°35.347 2°45.141 16.6265 4.45232 34.837489 -3.020363
2011-07-08 06:56:25 51°35.568 2°45.051 16.6295 4.45149 34.835146 -3.020363
2011-07-08 06:57:24 51°35.785 2°44.967 16.6453 4.451905 34.831742 -3.020363
2011-07-08 06:58:25 51°36.008 2°44.872 16.6565 4.453045 34.829775 -3.020363
2011-07-08 06:59:24 51°36.227 2°44.783 16.6536 4.452527 34.819605 -3.020363
2011-07-08 07:00:24 51°36.45 2°44.694 16.6477 4.453564 34.832911 -3.020363
2011-07-08 07:01:23 51°36.672 2°44.61 16.6364 4.452942 34.832384 -3.020363
2011-07-08 07:02:24 51°36.906 2°44.544 16.607 4.451179 34.835235 -3.020363
2011-07-08 07:03:25 51°37.142 2°44.477 16.5658 4.449831 34.853011 -3.020363
2011-07-08 07:04:25 51°37.368 2°44.401 16.5254 4.44703 34.855955 -3.020363
2011-07-08 07:05:25 51°37.597 2°44.331 16.5031 4.445268 34.869436 -3.020363
2011-07-08 07:06:25 51°37.821 2°44.242 16.4807 4.443193 34.876669 -3.020363
2011-07-08 07:07:25 51°38.047 2°44.168 16.4643 4.441638 34.878563 -3.020363
2011-07-08 07:08:24 51°38.27 2°44.109 16.4504 4.44029 34.881578 -3.020363
2011-07-08 07:09:24 51°38.498 2°44.044 16.4457 4.439149 34.882877 -3.020363
2011-07-08 07:10:24 51°38.722 2°43.97 16.4336 4.438527 34.885199 -3.020363
2011-07-08 07:11:24 51°38.949 2°43.896 16.4244 4.437904 34.886812 -3.020363
2011-07-08 07:12:25 51°39.177 2°43.823 16.4218 4.437075 34.88589 -3.020363
2011-07-08 07:13:25 51°39.404 2°43.741 16.4162 4.43666 34.888622 -3.020363
2011-07-08 07:14:25 51°39.631 2°43.669 16.4104 4.436141 34.886894 -3.020363
2011-07-08 07:15:25 51°39.856 2°43.601 16.4018 4.435519 34.8878 -3.020363
2011-07-08 07:16:25 51°40.08 2°43.526 16.3988 4.435 34.887491 -3.020363
2011-07-08 07:17:23 51°40.301 2°43.458 16.3851 4.434482 34.890022 -3.020363
2011-07-08 07:18:25 51°40.534 2°43.379 16.3743 4.433963 34.889003 -3.020363
2011-07-08 07:19:25 51°40.757 2°43.292 16.3683 4.43303 34.892141 -3.020363
2011-07-08 07:20:24 51°40.979 2°43.225 16.3507 4.432304 34.893558 -3.020363
2011-07-08 07:21:25 51°41.207 2°43.153 16.3367 4.431371 34.898124 -3.020363
2011-07-08 07:22:24 51°41.429 2°43.085 16.3295 4.430334 34.901779 -3.020363
2011-07-08 07:23:25 51°41.654 2°42.999 16.3087 4.429297 34.90259 -3.020363
2011-07-08 07:24:24 51°41.871 2°42.919 16.3009 4.428052 34.906557 -3.020363
2011-07-08 07:25:25 51°42.101 2°42.851 16.283 4.426393 34.903302 -3.020363
2011-07-08 07:26:25 51°42.328 2°42.79 16.2763 4.425771 34.905645 -3.020363
2011-07-08 07:27:25 51°42.552 2°42.727 16.2777 4.42463 34.899131 -3.020363
2011-07-08 07:28:24 51°42.776 2°42.665 16.277 4.42463 34.896993 -3.020363
2011-07-08 07:29:24 51°43.002 2°42.59 16.2758 4.410835 34.779456 -3.020363
2011-07-08 07:30:25 51°43.229 2°42.503 16.2731 4.425771 34.913486 -3.020363
2011-07-08 07:31:24 51°43.451 2°42.429 16.2674 4.42546 34.910737 -3.020363
2011-07-08 07:32:25 51°43.682 2°42.362 16.2634 4.424526 34.908194 -3.020363
2011-07-08 07:33:24 51°43.906 2°42.297 16.2582 4.423593 34.908504 -3.020363
2011-07-08 07:34:25 51°44.138 2°42.226 16.2476 4.422971 34.907284 -3.020363
2011-07-08 07:35:24 51°44.35 2°42.155 16.2421 4.422348 34.909631 -3.020363
2011-07-08 07:36:25 51°44.528 2°42.102 16.2362 4.42183 34.910042 -3.020363
2011-07-08 07:37:25 51°44.676 2°42.058 16.2246 4.421208 34.911677 -3.020363
2011-07-08 07:38:25 51°44.784 2°42.033 16.2215 4.420585 34.911886 -3.020363
2011-07-08 07:39:25 51°44.852 2°42.025 16.2218 4.420274 34.912705 -3.020363
2011-07-08 07:40:24 51°44.885 2°42.059 16.2196 4.420171 34.913215 -3.020363
2011-07-08 07:41:25 51°44.913 2°42.097 16.2152 4.419963 34.913523 -3.020363
2011-07-08 07:42:24 51°44.944 2°42.129 16.2144 4.419756 34.913117 -3.020363
2011-07-08 07:43:25 51°44.975 2°42.164 16.2169 4.419859 34.914034 -3.020363
2011-07-08 07:44:24 51°45.005 2°42.202 16.2032 4.419756 34.913831 -3.020363
2011-07-08 07:45:24 51°45.036 2°42.244 16.2166 4.419756 34.913117 -3.020363
2011-07-08 07:46:25 51°45.067 2°42.284 16.2228 4.420689 34.907806 -3.020363
2011-07-08 07:47:25 51°45.096 2°42.322 16.222 4.420896 34.90964 -3.020363
2011-07-08 07:48:25 51°45.125 2°42.361 16.219 4.421104 34.909333 -3.020363
2011-07-08 07:49:25 51°45.155 2°42.398 16.225 4.421622 34.908208 -3.020363
2011-07-08 07:50:25 51°45.184 2°42.434 16.2212 4.421208 34.909536 -3.020363
2011-07-08 07:51:24 51°45.211 2°42.468 16.2213 4.421311 34.910453 -3.020363
2011-07-08 07:52:25 51°45.241 2°42.503 16.2169 4.421104 34.91076 -3.020363
2011-07-08 07:53:24 51°45.27 2°42.534 16.2191 4.420896 34.911068 -3.020363
2011-07-08 07:54:25 51°45.303 2°42.564 16.2151 4.421104 34.912188 -3.020363
2011-07-08 07:55:24 51°45.334 2°42.593 16.2201 4.420689 34.910661 -3.020363
2011-07-08 07:56:25 51°45.369 2°42.617 16.227 4.421 34.911271 -3.020363
2011-07-08 07:57:25 51°45.404 2°42.631 16.244 4.422659 34.908814 -3.020363
2011-07-08 07:58:25 51°45.442 2°42.639 16.242 4.423904 34.911253 -3.020363
2011-07-08 07:59:25 51°45.482 2°42.63 16.2163 4.42266 34.913095 -3.020363
2011-07-08 08:00:24 51°45.518 2°42.596 16.2086 4.420585 34.911172 -3.020363
2011-07-08 08:01:25 51°45.554 2°42.547 16.2031 4.419756 34.908118 -3.020363
2011-07-08 08:02:24 51°45.587 2°42.494 16.2 4.419237 34.90853 -3.020363
2011-07-08 08:03:25 51°45.624 2°42.435 16.1971 4.418822 34.906288 -3.020363
2011-07-08 08:04:25 51°45.662 2°42.38 16.1904 4.419341 34.914447 -3.020363
2011-07-08 08:05:25 51°45.705 2°42.331 16.1877 4.418822 34.914146 -3.020363
2011-07-08 08:06:25 51°45.742 2°42.286 16.1843 4.418408 34.914048 -3.020363
2011-07-08 08:07:25 51°45.777 2°42.271 16.1801 4.4182 34.914356 -3.020363
2011-07-08 08:08:25 51°45.815 2°42.27 16.1959 4.417993 34.911806 -3.020363
2011-07-08 08:09:25 51°45.88 2°42.248 16.1788 4.418615 34.913025 -3.020363
2011-07-08 08:10:25 51°45.961 2°42.365 16.1784 4.417682 34.909767 -3.020363
2011-07-08 08:11:24 51°45.916 2°42.475 16.1854 4.417681 34.906195 -3.020363
2011-07-08 08:12:25 51°45.832 2°42.495 16.1889 4.417474 34.902217 -3.020363
2011-07-08 08:13:24 51°45.741 2°42.52 16.1942 4.418719 34.909656 -3.020363
2011-07-08 08:14:25 51°45.644 2°42.528 16.1969 4.418719 34.907513 -3.020363
2011-07-08 08:15:25 51°45.554 2°42.511 16.2008 4.419133 34.907612 -3.020363
2011-07-08 08:16:25 51°45.48 2°42.475 16.2011 4.419756 34.909546 -3.020363
2011-07-08 08:17:25 51°45.354 2°42.433 16.2041 4.419756 34.911689 -3.020363
2011-07-08 08:18:25 51°45.18 2°42.442 16.2112 4.42017 34.908217 -3.020363
2011-07-08 08:19:25 51°45.017 2°42.35 16.2139 4.419237 34.89568 -3.020363
2011-07-08 08:20:25 51°44.929 2°42.264 16.2144 4.420896 34.905357 -3.020363
2011-07-08 08:21:25 51°44.952 2°42.263 16.208 4.420274 34.906279 -3.020363
2011-07-08 08:22:28 51°44.98 2°42.297 16.2106 4.412288 34.839945 -3.020363
2011-07-08 08:23:26 51°45.007 2°42.326 16.2149 4.410317 34.818962 -3.020363
2011-07-08 08:24:25 51°45.037 2°42.351 16.2202 4.418615 34.888038 -3.020363
2011-07-08 08:25:25 51°45.069 2°42.375 16.2211 4.420274 34.899856 -3.020363
2011-07-08 08:26:25 51°45.102 2°42.399 16.2249 4.41934 34.889463 -3.020363
2011-07-08 08:27:24 51°45.136 2°42.423 16.2227 4.419133 34.887629 -3.020363
2011-07-08 08:28:25 51°45.17 2°42.447 16.2211 4.419652 34.892214 -3.020363
2011-07-08 08:29:24 51°45.201 2°42.47 16.2245 4.42017 34.898939 -3.020363
2011-07-08 08:30:25 51°45.232 2°42.497 16.2164 4.42017 34.896798 -3.020363
2011-07-08 08:31:25 51°45.264 2°42.524 16.2138 4.419548 34.896291 -3.020363
2011-07-08 08:32:25 51°45.295 2°42.55 16.213 4.419029 34.893846 -3.020363
2011-07-08 08:33:25 51°45.327 2°42.573 16.2094 4.419133 34.896904 -3.020363
2011-07-08 08:34:25 51°45.36 2°42.594 16.2111 4.418822 34.89558 -3.020363
2011-07-08 08:35:25 51°45.393 2°42.614 16.2117 4.419133 34.899045 -3.020363
2011-07-08 08:36:24 51°45.423 2°42.635 16.2127 4.419029 34.895987 -3.020363
2011-07-08 08:37:25 51°45.455 2°42.659 16.2096 4.419341 34.897311 -3.020363
2011-07-08 08:38:24 51°45.485 2°42.682 16.2137 4.4182 34.890791 -3.020363
2011-07-08 08:39:25 51°45.515 2°42.706 16.2124 4.418615 34.890891 -3.020363
2011-07-08 08:40:25 51°45.546 2°42.728 16.2166 4.419548 34.899859 -3.020363
2011-07-08 08:41:25 51°45.578 2°42.753 16.2155 4.419755 34.898838 -3.020363
2011-07-08 08:42:25 51°45.609 2°42.775 16.2113 4.419755 34.899552 -3.020363
2011-07-08 08:43:25 51°45.639 2°42.798 16.2094 4.419133 34.897618 -3.020363
2011-07-08 08:44:25 51°45.668 2°42.82 16.2075 4.418926 34.897924 -3.020363
2011-07-08 08:45:24 51°45.695 2°42.842 16.2093 4.418718 34.89609 -3.020363
2011-07-08 08:46:25 51°45.723 2°42.863 16.211 4.41903 34.898842 -3.020363
2011-07-08 08:47:25 51°45.754 2°42.884 16.2124 4.419133 34.896904 -3.020363
2011-07-08 08:48:25 51°45.783 2°42.903 16.2114 4.419133 34.896904 -3.020363
2011-07-08 08:49:25 51°45.814 2°42.922 16.2126 4.4182 34.887937 -3.020363
2011-07-08 08:50:25 51°45.843 2°42.941 16.2136 4.418822 34.892725 -3.020363
2011-07-08 08:51:25 51°45.872 2°42.963 16.2154 4.418926 34.890789 -3.020363
2011-07-08 08:52:25 51°45.899 2°42.988 16.2161 4.418926 34.892216 -3.020363
2011-07-08 08:53:25 51°45.926 2°43.011 16.2281 4.418822 34.889872 -3.020363
2011-07-08 08:54:25 51°45.956 2°43.033 16.2354 4.421726 34.899137 -3.020363
2011-07-08 08:55:25 51°45.984 2°43.054 16.2224 4.421519 34.902297 -3.020363
2011-07-08 08:56:25 51°46.013 2°43.074 16.2233 4.420896 34.901076 -3.020363
2011-07-08 08:57:25 51°46.044 2°43.094 16.2198 4.420585 34.900466 -3.020363
2011-07-08 08:58:25 51°46.077 2°43.105 16.2301 4.420378 34.898632 -3.020363
2011-07-08 08:59:25 51°46.103 2°43.055 16.2156 4.420481 34.898835 -3.020363
2011-07-08 09:00:25 51°46.07 2°43.01 16.2187 4.418096 34.883453 -3.020363
2011-07-08 09:01:25 51°45.915 2°43.007 16.2199 4.419859 34.894761 -3.020363
2011-07-08 09:02:25 51°45.737 2°42.998 16.2249 4.42017 34.894658 -3.020363
2011-07-08 09:03:25 51°45.559 2°42.937 16.2244 4.419963 34.890685 -3.020363
2011-07-08 09:04:25 51°45.392 2°42.821 16.2256 4.418718 34.878257 -3.020363
2011-07-08 09:05:25 51°45.225 2°42.704 16.2295 4.419237 34.882841 -3.020363
2011-07-08 09:06:25 51°45.054 2°42.59 16.2325 4.419651 34.88223 -3.020363
2011-07-08 09:07:25 51°44.889 2°42.485 16.2352 4.419444 34.877546 -3.020363
2011-07-08 09:08:25 51°44.72 2°42.38 16.2438 4.42017 34.881823 -3.020363
2011-07-08 09:09:25 51°44.559 2°42.277 16.2357 4.420896 34.885387 -3.020363
2011-07-08 09:10:25 51°44.531 2°42.194 16.2357 4.420377 34.884369 -3.020363
2011-07-08 09:11:25 51°44.558 2°42.177 16.2326 4.419029 34.876018 -3.020363
2011-07-08 09:12:24 51°44.589 2°42.179 16.2988 4.418614 34.870213 -3.020363
2011-07-08 09:13:25 51°44.619 2°42.189 16.2803 4.424837 34.879599 -3.020363
2011-07-08 09:14:25 51°44.646 2°42.205 16.2656 4.423904 34.888444 -3.020363
2011-07-08 09:15:25 51°44.673 2°42.221 16.2536 4.422659 34.883863 -3.020363
2011-07-08 09:16:25 51°44.7 2°42.238 16.2629 4.421622 34.882538 -3.020363
2011-07-08 09:17:25 51°44.727 2°42.254 16.2621 4.422244 34.878774 -3.020363
2011-07-08 09:18:25 51°44.753 2°42.269 16.2621 4.423178 34.887018 -3.020363
2011-07-08 09:19:25 51°44.78 2°42.284 16.262 4.42297 34.885899 -3.020363
2011-07-08 09:20:25 51°44.806 2°42.302 16.2587 4.422867 34.889257 -3.020363
2011-07-08 09:21:25 51°44.832 2°42.321 16.2554 4.422452 34.889868 -3.020363
2011-07-08 09:22:25 51°44.858 2°42.342 16.2314 4.422244 34.891599 -3.020363
2011-07-08 09:23:25 51°44.882 2°42.363 16.2315 4.420066 34.887323 -3.020363
2011-07-08 09:24:25 51°44.907 2°42.382 16.2306 4.419859 34.886202 -3.020363
2011-07-08 09:25:25 51°44.932 2°42.402 16.233 4.419963 34.887119 -3.020363
2011-07-08 09:26:25 51°44.958 2°42.419 16.2428 4.420377 34.885795 -3.020363
2011-07-08 09:27:25 51°44.985 2°42.434 16.237 4.421 34.889155 -3.020363
2011-07-08 09:28:25 51°45.01 2°42.448 16.2407 4.420585 34.884776 -3.020363
2011-07-08 09:29:25 51°45.035 2°42.466 16.2362 4.420689 34.886406 -3.020363
2011-07-08 09:30:25 51°45.059 2°42.484 16.2314 4.420481 34.885998 -3.020363
2011-07-08 09:31:25 51°45.083 2°42.501 16.2314 4.419755 34.884573 -3.020363
2011-07-08 09:32:25 51°45.111 2°42.514 16.2395 4.419548 34.881313 -3.020363
2011-07-08 09:33:25 51°45.15 2°42.477 16.2495 4.420689 34.880704 -3.020363
2011-07-08 09:34:25 51°45.185 2°42.416 16.2344 4.420585 34.884064 -3.020363
2011-07-08 09:35:25 51°45.214 2°42.351 16.2276 4.419859 34.884776 -3.020363
2011-07-08 09:36:25 51°45.24 2°42.279 16.2296 4.41934 34.884471 -3.020363
2011-07-08 09:37:25 51°45.246 2°42.205 16.229 4.418822 34.877748 -3.020363
2011-07-08 09:38:25 51°45.234 2°42.135 16.2207 4.419237 34.885693 -3.020363
2011-07-08 09:39:25 51°45.233 2°42.074 16.2157 4.418614 34.883758 -3.020363
2011-07-08 09:40:25 51°45.236 2°42.003 16.2201 4.418096 34.882026 -3.020363
2011-07-08 09:41:25 51°45.25 2°41.942 16.2149 4.418407 34.880498 -3.020363
2011-07-08 09:42:25 51°45.257 2°41.868 16.214 4.417577 34.880294 -3.020363
2011-07-08 09:43:25 51°45.266 2°41.808 16.2081 4.417681 34.883351 -3.020363
2011-07-08 09:44:25 51°45.267 2°41.749 16.2067 4.417059 34.880702 -3.020363
2011-07-08 09:45:25 51°45.26 2°41.684 16.2045 4.417059 34.881416 -3.020363
2011-07-08 09:46:25 51°45.242 2°41.606 16.2032 4.416748 34.880091 -3.020363
2011-07-08 09:47:25 51°45.214 2°41.541 16.1999 4.416333 34.878563 -3.020363
2011-07-08 09:48:24 51°45.185 2°41.489 16.1983 4.415918 34.877034 -3.020363
2011-07-08 09:49:25 51°45.155 2°41.417 16.2002 4.415607 34.875709 -3.020363
2011-07-08 09:50:25 51°45.128 2°41.337 16.2005 4.415814 34.873977 -3.020363
2011-07-08 09:51:25 51°45.111 2°41.263 16.1927 4.415503 34.875505 -3.020363
2011-07-08 09:52:25 51°45.095 2°41.173 16.1941 4.414673 34.871734 -3.020363
2011-07-08 09:53:25 51°45.087 2°41.088 16.1916 4.414466 34.870613 -3.020363
2011-07-08 09:54:25 51°45.083 2°41.008 16.1912 4.413947 34.868167 -3.020363
2011-07-08 09:55:25 51°45.077 2°40.916 16.1856 4.413947 34.868167 -3.020363
2011-07-08 09:56:25 51°45.072 2°40.822 16.1857 4.413325 34.867656 -3.020363
2011-07-08 09:57:24 51°45.077 2°40.732 16.1789 4.413118 34.865108 -3.020363
2011-07-08 09:58:25 51°45.083 2°40.633 16.1776 4.412288 34.864903 -3.020363
2011-07-08 09:59:25 51°45.081 2°40.534 16.1697 4.411977 34.865005 -3.020363
2011-07-08 10:00:25 51°45.035 2°40.516 16.1727 4.414466 34.890603 -3.020363
2011-07-08 10:01:25 51°44.984 2°40.664 16.181 4.414777 34.8855 -3.020363
2011-07-08 10:02:25 51°44.889 2°40.892 16.1908 4.415918 34.887739 -3.020363
2011-07-08 10:03:25 51°44.728 2°41.071 16.2008 4.41654 34.883965 -3.020363
2011-07-08 10:04:24 51°44.553 2°41.199 16.2102 4.416851 34.880295 -3.020363
2011-07-08 10:05:25 51°44.368 2°41.328 16.2225 4.417474 34.877238 -3.020363
2011-07-08 10:06:24 51°44.189 2°41.451 16.2403 4.418718 34.877545 -3.020363
2011-07-08 10:07:25 51°44.003 2°41.569 16.255 4.421207 34.88386 -3.020363
2011-07-08 10:08:24 51°43.82 2°41.676 16.2664 4.422659 34.883863 -3.020363
2011-07-08 10:09:25 51°43.63 2°41.788 16.2795 4.423489 34.881932 -3.020363
2011-07-08 10:10:25 51°43.445 2°41.9 16.2894 4.424629 34.88275 -3.020363
2011-07-08 10:11:24 51°43.263 2°42.017 16.3016 4.425563 34.881737 -3.020363
2011-07-08 10:12:25 51°43.12 2°42.244 16.3118 4.427015 34.885302 -3.020363
2011-07-08 10:13:24 51°43.064 2°42.556 16.3183 4.426911 34.873718 -3.020363
2011-07-08 10:14:25 51°43.038 2°42.895 16.3149 4.429711 34.895577 -3.020363
2011-07-08 10:15:24 51°43.006 2°43.222 16.3149 4.429711 34.897 -3.020363
2011-07-08 10:16:24 51°42.902 2°43.504 16.3236 4.430334 34.898222 -3.020363
2011-07-08 10:17:25 51°42.741 2°43.698 16.3417 4.430748 34.89548 -3.020363
2011-07-08 10:18:25 51°42.549 2°43.798 16.3478 4.43023 34.891617 -3.020363
2011-07-08 10:19:25 51°42.356 2°43.887 16.3617 4.430022 34.884811 -3.020363
2011-07-08 10:20:25 51°42.164 2°43.976 16.3734 4.430333 34.879737 -3.020363
2011-07-08 10:21:25 51°41.971 2°44.056 16.3809 4.430956 34.874568 -3.020363
2011-07-08 10:22:24 51°41.778 2°44.13 16.3916 4.431578 34.870822 -3.020363
2011-07-08 10:23:25 51°41.577 2°44.204 16.4004 4.432926 34.873475 -3.020363
2011-07-08 10:24:24 51°41.386 2°44.283 16.4096 4.434274 34.877546 -3.020363
2011-07-08 10:25:25 51°41.187 2°44.359 16.4107 4.434378 34.874912 -3.020363
2011-07-08 10:26:25 51°40.991 2°44.435 16.4207 4.434897 34.874514 -3.020363
2011-07-08 10:27:25 51°40.798 2°44.515 16.4312 4.435208 34.872289 -3.020363
2011-07-08 10:28:25 51°40.601 2°44.589 16.431 4.43583 34.871386 -3.020363
2011-07-08 10:29:24 51°40.407 2°44.666 16.439 4.436452 34.870484 -3.020363
2011-07-08 10:30:25 51°40.206 2°44.748 16.4511 4.436763 34.868262 -3.020363
2011-07-08 10:31:24 51°40.01 2°44.82 16.4616 4.437385 34.866653 -3.020363
2011-07-08 10:32:25 51°39.815 2°44.928 16.4666 4.4378 34.864636 -3.020363
2011-07-08 10:33:24 51°39.628 2°45.043 16.4803 4.438734 34.861518 -3.020363
2011-07-08 10:34:25 51°39.439 2°45.171 16.4879 4.439356 34.859205 -3.020363
2011-07-08 10:35:25 51°39.25 2°45.297 16.5068 4.440289 34.853969 -3.020363
2011-07-08 10:36:25 51°39.063 2°45.427 16.5245 4.441741 34.849762 -3.020363
2011-07-08 10:37:25 51°38.877 2°45.559 16.5621 4.442674 34.838182 -3.020363
2011-07-08 10:38:24 51°38.691 2°45.684 16.5971 4.445163 34.828986 -3.020363
2011-07-08 10:39:25 51°38.501 2°45.817 16.6328 4.447341 34.814973 -3.020363
2011-07-08 10:40:24 51°38.329 2°45.983 16.6591 4.449622 34.808934 -3.020363
2011-07-08 10:41:25 51°38.145 2°46.139 16.6719 4.451178 34.803578 -3.020363
2011-07-08 10:42:24 51°37.963 2°46.278 16.6892 4.452423 34.801126 -3.020363
2011-07-08 10:43:25 51°37.777 2°46.431 16.6887 4.453252 34.799961 -3.020363
2011-07-08 10:44:25 51°37.609 2°46.618 16.6899 4.453667 34.802188 -3.020363
2011-07-08 10:45:25 51°37.434 2°46.785 16.6914 4.453564 34.804792 -3.020363
2011-07-08 10:46:25 51°37.251 2°46.931 16.6562 4.453045 34.809384 -3.020363
2011-07-08 10:47:24 51°37.073 2°47.073 16.6479 4.451801 34.812543 -3.020363
2011-07-08 10:48:24 51°36.895 2°47.218 16.6527 4.450971 34.813713 -3.020363
2011-07-08 10:49:24 51°36.718 2°47.375 16.6641 4.450867 34.804368 -3.020363
2011-07-08 10:50:24 51°36.536 2°47.533 16.6742 4.451593 34.802995 -3.020363
2011-07-08 10:51:25 51°36.353 2°47.698 16.6755 4.451593 34.79597 -3.020363
2011-07-08 10:52:24 51°36.173 2°47.85 16.6857 4.45263 34.801537 -3.020363
2011-07-08 10:53:25 51°35.989 2°48.013 16.7014 4.45263 34.797323 -3.020363
2011-07-08 10:54:24 51°35.809 2°48.168 16.7172 4.453356 34.788936 -3.020363
2011-07-08 10:55:25 51°35.622 2°48.324 16.7318 4.454185 34.782866 -3.020363
2011-07-08 10:56:25 51°35.44 2°48.479 16.7681 4.456571 34.784097 -3.020363
2011-07-08 10:57:25 51°35.26 2°48.638 16.8095 4.45906 34.775733 -3.020363
2011-07-08 10:58:24 51°35.079 2°48.789 16.8664 4.462379 34.760655 -3.020363
2011-07-08 10:59:24 51°34.895 2°48.944 16.9106 4.465801 34.749321 -3.020363
2011-07-08 11:00:25 51°34.709 2°49.1 16.942 4.471506 34.765557 -3.020363
2011-07-08 11:01:25 51°34.525 2°49.251 16.9594 4.473995 34.762848 -3.020363
2011-07-08 11:02:25 51°34.339 2°49.402 16.9677 4.475343 34.759963 -3.020363
2011-07-08 11:03:24 51°34.157 2°49.551 16.9755 4.476277 34.761126 -3.020363
2011-07-08 11:04:25 51°33.971 2°49.709 16.9725 4.47638 34.759941 -3.020363
2011-07-08 11:05:24 51°33.788 2°49.856 16.971 4.476795 34.760072 -3.020363
2011-07-08 11:06:25 51°33.6 2°50.012 16.9693 4.476484 34.75667 -3.020363
2011-07-08 11:07:24 51°33.419 2°50.161 16.9612 4.476588 34.761745 -3.020363
2011-07-08 11:08:25 51°33.229 2°50.311 16.9434 4.476069 34.766976 -3.020363
2011-07-08 11:09:25 51°33.043 2°50.46 16.9521 4.474514 34.768058 -3.020363
2011-07-08 11:10:24 51°32.861 2°50.607 16.9773 4.475136 34.75955 -3.020363
2011-07-08 11:11:25 51°32.672 2°50.76 17.028 4.476899 34.749153 -3.020363
2011-07-08 11:12:25 51°32.484 2°50.906 17.0699 4.479491 34.730021 -3.020363
2011-07-08 11:13:25 51°32.3 2°51.058 17.1082 4.482292 34.717592 -3.020363
2011-07-08 11:14:25 51°32.115 2°51.21 17.1414 4.487063 34.727818 -3.020363
2011-07-08 11:15:25 51°31.929 2°51.359 17.1746 4.489241 34.721794 -3.020363
2011-07-08 11:16:24 51°31.75 2°51.519 17.2005 4.492871 34.723522 -3.020363
2011-07-08 11:17:24 51°31.626 2°51.74 17.2188 4.493805 34.712271 -3.020363
2011-07-08 11:18:24 51°31.556 2°51.868 17.2259 4.495568 34.713729 -3.020363
2011-07-08 11:19:24 51°31.49 2°52.02 17.226 4.495257 34.707589 -3.020363
2011-07-08 11:20:25 51°31.474 2°52.244 17.231 4.494427 34.698344 -3.020363
2011-07-08 11:21:25 51°31.412 2°52.347 17.2419 4.493493 34.682692 -3.020363
2011-07-08 11:22:25 51°31.352 2°52.322 17.2436 4.492144 34.664838 -3.020363
2011-07-08 11:23:25 51°31.345 2°52.241 17.2477 4.491314 34.657665 -3.020363
2011-07-08 11:24:24 51°31.356 2°52.189 17.2531 4.491418 34.655809 -3.020363
2011-07-08 11:25:25 51°31.366 2°52.141 17.2492 4.491625 34.656226 -3.020363
2011-07-08 11:26:25 51°31.375 2°52.094 17.2443 4.492248 34.654725 -3.020363
2011-07-08 11:27:25 51°31.386 2°52.046 17.2429 4.493596 34.665002 -3.020363
2011-07-08 11:28:25 51°31.396 2°51.984 17.2311 4.4937 34.669338 -3.020363
2011-07-08 11:29:25 51°31.401 2°51.912 17.2266 4.493285 34.673324 -3.020363
2011-07-08 11:30:25 51°31.403 2°51.837 17.2237 4.492767 34.672283 -3.020363
2011-07-08 11:31:25 51°31.404 2°51.763 17.2246 4.493078 34.67635 -3.020363
2011-07-08 11:32:24 51°31.405 2°51.691 17.2275 4.494012 34.683043 -3.020363
2011-07-08 11:33:24 51°31.408 2°51.625 17.2223 4.49453 34.68615 -3.020363
2011-07-08 11:34:24 51°31.411 2°51.561 17.2238 4.494219 34.687592 -3.020363
2011-07-08 11:35:25 51°31.417 2°51.492 17.2307 4.493804 34.68125 -3.020363
2011-07-08 11:36:24 51°31.424 2°51.424 17.2256 4.495464 34.696287 -3.020363
2011-07-08 11:37:25 51°31.429 2°51.357 17.2286 4.495879 34.697807 -3.020363
2011-07-08 11:38:25 51°31.432 2°51.296 17.2285 4.496294 34.700705 -3.020363
2011-07-08 11:39:25 51°31.435 2°51.238 17.2205 4.496397 34.702291 -3.020363
2011-07-08 11:40:25 51°31.443 2°51.176 17.2279 4.495879 34.701942 -3.020363
2011-07-08 11:41:24 51°31.436 2°51.094 17.2291 4.496501 34.703877 -3.020363
2011-07-08 11:42:25 51°31.355 2°51.079 17.2317 4.496605 34.704774 -3.020363
2011-07-08 11:43:24 51°31.324 2°51.297 17.232 4.497331 34.70485 -3.020363
2011-07-08 11:44:25 51°31.302 2°51.618 17.2229 4.496501 34.696987 -3.020363
2011-07-08 11:45:24 51°31.281 2°51.933 17.2359 4.493078 34.669465 -3.020363
2011-07-08 11:46:25 51°31.295 2°52.26 17.2615 4.49204 34.647431 -3.020363
2011-07-08 11:47:25 51°31.308 2°52.486 17.2673 4.490173 34.61207 -3.020363
2011-07-08 11:48:25 51°31.366 2°52.493 17.2714 4.489239 34.603323 -3.020363
2011-07-08 11:49:25 51°31.379 2°52.469 17.2786 4.489031 34.601532 -3.020363
2011-07-08 11:50:25 51°31.376 2°52.469 17.2646 4.490069 34.598138 -3.020363
2011-07-08 11:51:25 51°31.372 2°52.471 17.2626 4.488513 34.599799 -3.020363
2011-07-08 11:52:25 51°31.369 2°52.467 17.2718 4.488305 34.59938 -3.020363
2011-07-08 11:53:25 51°31.367 2°52.462 17.2643 4.488824 34.596997 -3.020363
2011-07-08 11:54:25 51°31.366 2°52.457 17.2657 4.488202 34.597798 -3.020363
2011-07-08 11:55:25 51°31.363 2°52.448 17.2676 4.48789 34.59717 -3.020363
2011-07-08 11:56:25 51°31.361 2°52.441 17.2628 4.487475 34.590843 -3.020363
2011-07-08 11:57:25 51°31.357 2°52.432 17.2701 4.487683 34.594693 -3.020363
2011-07-08 11:58:25 51°31.355 2°52.425 17.262 4.488305 34.591834 -3.020363
2011-07-08 11:59:25 51°31.352 2°52.416 17.257 4.487476 34.59496 -3.020363
2011-07-08 12:00:25 51°31.348 2°52.409 17.2521 4.486438 34.587375 -3.020363
2011-07-08 12:01:25 51°31.345 2°52.401 17.2526 4.48509 34.592887 -3.020363
2011-07-08 12:02:25 51°31.366 2°52.369 17.2635 4.484986 34.590618 -3.020363
2011-07-08 12:03:25 51°31.416 2°52.423 17.263 4.484882 34.582173 -3.020363
2011-07-08 12:04:25 51°31.376 2°52.628 17.2588 4.484675 34.583812 -3.020363
2011-07-08 12:05:25 51°31.317 2°52.93 17.2643 4.485505 34.589606 -3.020363
2011-07-08 12:06:25 51°31.233 2°53.226 17.2652 4.485712 34.590026 -3.020363
2011-07-08 12:07:25 51°31.146 2°53.52 17.2648 4.485608 34.585012 -3.020363
2011-07-08 12:08:24 51°31.062 2°53.811 17.2796 4.485297 34.582325 -3.020363
2011-07-08 12:09:25 51°30.983 2°54.118 17.313 4.487994 34.602184 -3.020363
2011-07-08 12:10:25 51°30.897 2°54.416 17.3743 4.48706 34.542054 -3.020363
2011-07-08 12:11:25 51°30.814 2°54.715 17.4051 4.486437 34.497757 -3.020363
2011-07-08 12:12:24 51°30.739 2°55.012 17.4359 4.484777 34.458936 -3.020363
2011-07-08 12:13:25 51°30.662 2°55.316 17.483 4.483013 34.418605 -3.020363
2011-07-08 12:14:25 51°30.584 2°55.608 17.545 4.476995 34.315413 -3.020363
2011-07-08 12:15:25 51°30.522 2°55.907 17.5724 4.471704 34.225514 -3.020363
2011-07-08 12:16:25 51°30.467 2°56.205 17.5843 4.469214 34.186025 -3.020363
2011-07-08 12:17:24 51°30.403 2°56.497 17.5788 4.467969 34.168649 -3.020363
2011-07-08 12:18:25 51°30.339 2°56.798 17.58 4.466828 34.164923 -3.020363
2011-07-08 12:19:25 51°30.278 2°57.101 17.5956 4.466621 34.155761 -3.020363
2011-07-08 12:20:25 51°30.214 2°57.399 17.6141 4.46828 34.156545 -3.020363
2011-07-08 12:21:25 51°30.153 2°57.7 17.6417 4.469317 34.148652 -3.020363
2011-07-08 12:22:25 51°30.092 2°58.004 17.717 4.468279 34.112323 -3.020363
2011-07-08 12:23:25 51°30.03 2°58.309 17.7749 4.466515 34.034517 -3.020363
2011-07-08 12:24:25 51°29.967 2°58.613 17.8104 4.465373 33.978244 -3.020363
2011-07-08 12:25:25 51°29.904 2°58.912 17.826 4.461742 33.926114 -3.020363
2011-07-08 12:26:24 51°29.846 2°59.205 17.8102 4.462468 33.930969 -3.020363
2011-07-08 12:27:25 51°29.781 2°59.508 17.8193 4.461638 33.929868 -3.020363
2011-07-08 12:28:25 51°29.722 2°59.804 17.8311 4.458734 33.894558 -3.020363
2011-07-08 12:29:25 51°29.66 3°0.102 17.8975 4.453962 33.841415 -3.020363
2011-07-08 12:30:25 51°29.602 3°0.403 17.9749 4.447219 33.724231 -3.020363
2011-07-08 12:31:25 51°29.541 3°0.706 18.0507 4.443483 33.618612 -3.020363
2011-07-08 12:32:25 51°29.479 3°1.01 18.07 4.4412 33.556954 -3.020363
2011-07-08 12:33:25 51°29.421 3°1.314 18.067 4.439748 33.532978 -3.020363
2011-07-08 12:34:25 51°29.358 3°1.614 18.1123 4.436429 33.495195 -3.020363
2011-07-08 12:35:24 51°29.299 3°1.91 18.1393 4.432175 33.428847 -3.020363
2011-07-08 12:36:25 51°29.229 3°2.212 18.1476 4.430827 33.399377 -3.020363
2011-07-08 12:37:25 51°29.156 3°2.508 18.1823 4.425744 33.341696 -3.020363
2011-07-08 12:38:25 51°29.087 3°2.802 18.2245 4.420661 33.272512 -3.020363
2011-07-08 12:39:25 51°29.018 3°3.095 18.2477 4.414852 33.196064 -3.020363
2011-07-08 12:40:25 51°28.95 3°3.39 18.261 4.41091 33.141831 -3.020363
2011-07-08 12:41:25 51°28.88 3°3.681 18.2805 4.406035 33.086846 -3.020363
2011-07-08 12:42:25 51°28.813 3°3.975 18.292 4.405828 33.070456 -3.020363
2011-07-08 12:43:25 51°28.745 3°4.27 18.3079 4.402923 33.036542 -3.020363
2011-07-08 12:44:24 51°28.673 3°4.562 18.3259 4.402716 33.022729 -3.020363
2011-07-08 12:45:25 51°28.602 3°4.865 18.3483 4.399293 32.985142 -3.020363
2011-07-08 12:46:25 51°28.536 3°5.164 18.3809 4.395455 32.928915 -3.020363
2011-07-08 12:47:25 51°28.47 3°5.462 18.407 4.393795 32.893533 -3.020363
2011-07-08 12:48:25 51°28.399 3°5.763 18.4238 4.394313 32.877682 -3.020363
2011-07-08 12:49:25 51°28.328 3°6.06 18.439 4.395765 32.874067 -3.020363
2011-07-08 12:50:25 51°28.258 3°6.362 18.4688 4.395972 32.857537 -3.020363
2011-07-08 12:51:25 51°28.188 3°6.664 18.4814 4.393587 32.822514 -3.020363
2011-07-08 12:52:25 51°28.119 3°6.967 18.5105 4.391305 32.787765 -3.020363
2011-07-08 12:53:25 51°28.051 3°7.271 18.5218 4.388608 32.748965 -3.020363
2011-07-08 12:54:25 51°27.981 3°7.575 18.5574 4.387778 32.7264 -3.020363
2011-07-08 12:55:24 51°27.909 3°7.874 18.5866 4.385081 32.677691 -3.020363
2011-07-08 12:56:25 51°27.84 3°8.187 18.6223 4.380206 32.612807 -3.020363
2011-07-08 12:57:25 51°27.784 3°8.504 18.6236 4.37979 32.589464 -3.020363
2011-07-08 12:58:25 51°27.732 3°8.821 18.6285 4.378442 32.575146 -3.020363
2011-07-08 12:59:25 51°27.677 3°9.141 18.6265 4.380309 32.586325 -3.020363
2011-07-08 13:00:25 51°27.621 3°9.46 18.6487 4.378753 32.570906 -3.020363
2011-07-08 13:01:25 51°27.567 3°9.782 18.6637 4.378857 32.555022 -3.020363
2011-07-08 13:02:25 51°27.509 3°10.101 18.6875 4.376678 32.525158 -3.020363
2011-07-08 13:03:25 51°27.453 3°10.422 18.6924 4.373048 32.485735 -3.020363
2011-07-08 13:04:25 51°27.404 3°10.745 18.7078 4.371596 32.460095 -3.020363
2011-07-08 13:05:25 51°27.35 3°11.065 18.7231 4.371285 32.445791 -3.020363
2011-07-08 13:06:25 51°27.297 3°11.384 18.7272 4.369936 32.427827 -3.020363
2011-07-08 13:07:25 51°27.247 3°11.706 18.727 4.371285 32.435927 -3.020363
2011-07-08 13:08:25 51°27.215 3°12.031 18.7326 4.371181 32.433218 -3.020363
2011-07-08 13:09:25 51°27.169 3°12.352 18.7387 4.372736 32.440572 -3.020363
2011-07-08 13:10:25 51°27.141 3°12.677 18.7386 4.374085 32.447437 -3.020363
2011-07-08 13:11:25 51°27.1 3°13.004 18.7455 4.372218 32.434424 -3.020363
2011-07-08 13:12:25 51°27.053 3°13.33 18.7476 4.377092 32.471758 -3.020363
2011-07-08 13:13:24 51°27.025 3°13.653 18.7326 4.378544 32.481947 -3.020363
2011-07-08 13:14:25 51°26.972 3°13.943 18.7164 4.378544 32.488117 -3.020363
2011-07-08 13:15:25 51°26.936 3°14.134 18.6945 4.377196 32.497925 -3.020363
2011-07-08 13:16:25 51°26.921 3°14.264 18.6897 4.376678 32.50289 -3.020363
2011-07-08 13:17:25 51°26.961 3°14.311 18.6659 4.375434 32.49874 -3.020363
2011-07-08 13:18:25 51°26.971 3°14.309 18.668 4.372322 32.479708 -3.020363
2011-07-08 13:19:25 51°26.973 3°14.306 18.6724 4.373152 32.484124 -3.020363
2011-07-08 13:20:25 51°26.97 3°14.307 18.7163 4.373774 32.482494 -3.020363
2011-07-08 13:21:25 51°26.965 3°14.311 18.6829 4.377196 32.486192 -3.020363
2011-07-08 13:22:25 51°26.959 3°14.319 18.6726 4.374707 32.48777 -3.020363
2011-07-08 13:23:25 51°26.952 3°14.329 18.6703 4.373774 32.486201 -3.020363
2011-07-08 13:24:25 51°26.947 3°14.343 18.6779 4.37367 32.486576 -3.020363
2011-07-08 13:25:25 51°26.941 3°14.357 18.6715 4.373774 32.485583 -3.020363
2011-07-08 13:26:25 51°26.935 3°14.371 18.6617 4.373878 32.485826 -3.020363
2011-07-08 13:27:25 51°26.929 3°14.384 18.6561 4.372737 32.486242 -3.020363
2011-07-08 13:28:25 51°26.936 3°14.364 18.6659 4.372737 32.480062 -3.020363
2011-07-08 13:29:25 51°26.95 3°14.287 18.66 4.375848 32.509605 -3.020363
2011-07-08 13:30:25 51°26.951 3°14.191 18.6573 4.37616 32.515281 -3.020363
2011-07-08 13:31:25 51°26.945 3°14.12 18.6557 4.376263 32.518618 -3.020363
2011-07-08 13:32:25 51°26.942 3°14.062 18.652 4.376575 32.521202 -3.020363
2011-07-08 13:33:25 51°26.975 3°14.019 18.6523 4.376575 32.52244 -3.020363
2011-07-08 13:34:25 51°27.016 3°13.964 18.6515 4.376989 32.527742 -3.020363
2011-07-08 13:35:25 51°27.041 3°13.894 18.652 4.377819 32.535254 -3.020363
2011-07-08 13:36:25 51°27.05 3°13.835 18.6549 4.378234 32.536842 -3.020363
2011-07-08 13:37:25 51°27.056 3°13.779 18.6564 4.378441 32.536707 -3.020363
2011-07-08 13:38:25 51°27.058 3°13.722 18.6601 4.378338 32.534608 -3.020363
2011-07-08 13:39:25 51°27.057 3°13.662 18.6617 4.378234 32.530651 -3.020363
2011-07-08 13:40:25 51°27.053 3°13.605 18.6656 4.377819 32.526587 -3.020363
2011-07-08 13:41:25 51°27.046 3°13.547 18.6697 4.377612 32.521152 -3.020363
2011-07-08 13:42:25 51°27.053 3°13.5 18.6725 4.3773 32.514857 -3.020363
2011-07-08 13:43:25 51°27.078 3°13.476 18.6735 4.376885 32.508939 -3.020363
2011-07-08 13:44:25 51°27.101 3°13.445 18.6715 4.376885 32.510176 -3.020363
2011-07-08 13:45:25 51°27.114 3°13.407 18.6706 4.376989 32.511655 -3.020363
2011-07-08 13:46:25 51°27.113 3°13.391 18.6693 4.376885 32.511413 -3.020363
2011-07-08 13:47:23 51°27.108 3°13.387 18.6756 4.377093 32.513753 -3.020363
2011-07-08 13:48:23 51°27.101 3°13.389 18.6911 4.378441 32.511343 -3.020363
2011-07-08 13:49:24 51°27.094 3°13.399 18.6596 4.379167 32.518605 -3.020363
2011-07-08 13:50:24 51°27.085 3°13.416 18.6603 4.377197 32.519563 -3.020363
2011-07-08 13:51:25 51°27.074 3°13.431 18.6598 4.377404 32.522523 -3.020363
2011-07-08 13:52:23 51°27.083 3°13.408 18.663 4.377508 32.522147 -3.020363
2011-07-08 13:53:25 51°27.081 3°13.273 18.6605 4.375434 32.50616 -3.020363
2011-07-08 13:54:23 51°27.087 3°13.035 18.6629 4.37813 32.527314 -3.020363
2011-07-08 13:55:24 51°27.096 3°12.723 18.6627 4.378338 32.527799 -3.020363
2011-07-08 13:56:24 51°27.094 3°12.402 18.6694 4.3773 32.51795 -3.020363
2011-07-08 13:57:24 51°27.089 3°12.081 18.6863 4.375019 32.492824 -3.020363
2011-07-08 13:58:23 51°27.024 3°11.777 18.7021 4.373981 32.471247 -3.020363
2011-07-08 13:59:23 51°26.919 3°11.486 18.6989 4.375433 32.473418 -3.020363
2011-07-08 14:00:25 51°26.809 3°11.188 18.6975 4.374707 32.469247 -3.020363
2011-07-08 14:01:24 51°26.721 3°10.892 18.6923 4.373463 32.458923 -3.020363
2011-07-08 14:02:24 51°26.63 3°10.591 18.6901 4.372011 32.45243 -3.020363
2011-07-08 14:03:24 51°26.523 3°10.299 18.6916 4.37004 32.435467 -3.020363
2011-07-08 14:04:23 51°26.431 3°10.005 18.6847 4.368899 32.426004 -3.020363
2011-07-08 14:05:23 51°26.336 3°9.707 18.6789 4.368174 32.426146 -3.020363
2011-07-08 14:06:23 51°26.236 3°9.413 18.6728 4.36807 32.428984 -3.020363
2011-07-08 14:07:24 51°26.119 3°9.123 18.676 4.366515 32.431494 -3.020363
2011-07-08 14:08:24 51°26.001 3°8.843 18.6784 4.3661 32.426817 -3.020363
2011-07-08 14:09:24 51°25.888 3°8.557 18.6864 4.364233 32.407624 -3.020363
2011-07-08 14:10:23 51°25.765 3°8.285 18.6852 4.361951 32.38561 -3.020363
2011-07-08 14:11:25 51°25.648 3°7.986 18.6862 4.359773 32.366925 -3.020363
2011-07-08 14:12:24 51°25.523 3°7.718 18.6887 4.358114 32.353775 -3.020363
2011-07-08 14:13:24 51°25.377 3°7.469 18.6769 4.357595 32.351319 -3.020363
2011-07-08 14:14:24 51°25.238 3°7.209 18.6714 4.358736 32.367555 -3.020363
2011-07-08 14:15:24 51°25.092 3°6.964 18.6658 4.35967 32.378997 -3.020363
2011-07-08 14:16:23 51°24.947 3°6.72 18.6667 4.358529 32.371993 -3.020363
2011-07-08 14:17:23 51°24.806 3°6.46 18.6676 4.357596 32.36363 -3.020363
2011-07-08 14:18:24 51°24.667 3°6.19 18.6751 4.35687 32.355758 -3.020363
2011-07-08 14:19:24 51°24.601 3°5.872 18.6833 4.356662 32.349113 -3.020363
2011-07-08 14:20:24 51°24.537 3°5.549 18.6967 4.355625 32.334357 -3.020363
2011-07-08 14:21:23 51°24.468 3°5.236 18.7213 4.354691 32.312481 -3.020363
2011-07-08 14:22:23 51°24.365 3°4.943 18.7325 4.354069 32.293818 -3.020363
2011-07-08 14:23:23 51°24.231 3°4.679 18.7337 4.355106 32.29321 -3.020363
2011-07-08 14:24:24 51°24.093 3°4.421 18.7329 4.356765 32.305732 -3.020363
2011-07-08 14:25:24 51°23.953 3°4.171 18.7249 4.355935 32.300698 -3.020363
2011-07-08 14:26:24 51°23.805 3°3.926 18.7082 4.353654 32.289153 -3.020363
2011-07-08 14:27:25 51°23.663 3°3.664 18.6943 4.351269 32.280425 -3.020363
2011-07-08 14:28:23 51°23.527 3°3.417 18.6845 4.347225 32.25855 -3.020363
2011-07-08 14:29:25 51°23.377 3°3.158 18.673 4.344632 32.245638 -3.020363
2011-07-08 14:30:24 51°23.241 3°2.902 18.6562 4.341521 32.232101 -3.020363
2011-07-08 14:31:24 51°23.1 3°2.649 18.643 4.339344 32.222621 -3.020363
2011-07-08 14:32:24 51°22.955 3°2.396 18.6388 4.337373 32.216086 -3.020363
2011-07-08 14:33:23 51°22.818 3°2.141 18.6256 4.3465 32.299826 -3.020363
2011-07-08 14:34:23 51°22.677 3°1.888 18.619 4.347433 32.314347 -3.020363
2011-07-08 14:35:23 51°22.537 3°1.629 18.6224 4.344114 32.288632 -3.020363
2011-07-08 14:36:24 51°22.394 3°1.365 18.6351 4.33924 32.2414 -3.020363
2011-07-08 14:37:24 51°22.254 3°1.105 18.6505 4.335092 32.197768 -3.020363
2011-07-08 14:38:24 51°22.108 3°0.857 18.6581 4.333536 32.175671 -3.020363
2011-07-08 14:39:23 51°21.974 3°0.595 18.6656 4.336025 32.188965 -3.020363
2011-07-08 14:40:23 51°21.832 3°0.339 18.6793 4.339758 32.214413 -3.020363
2011-07-08 14:41:23 51°21.688 3°0.084 18.7003 4.347536 32.267878 -3.020363
2011-07-08 14:42:24 51°21.546 2°59.821 18.7297 4.356973 32.326484 -3.020363
2011-07-08 14:43:24 51°21.405 2°59.563 18.758 4.367966 32.396712 -3.020363
2011-07-08 14:44:24 51°21.268 2°59.301 18.791 4.383937 32.505064 -3.020363
2011-07-08 14:45:25 51°21.119 2°59.049 18.8087 4.398664 32.603028 -3.020363
2011-07-08 14:46:23 51°20.986 2°58.798 18.808 4.405613 32.652567 -3.020363
2011-07-08 14:47:23 51°20.849 2°58.537 18.8039 4.402812 32.631838 -3.020363
2011-07-08 14:48:24 51°20.705 2°58.28 18.8069 4.402294 32.626923 -3.020363
2011-07-08 14:49:24 51°20.562 2°58.026 18.8042 4.402916 32.628986 -3.020363
2011-07-08 14:50:23 51°20.431 2°57.763 18.8015 4.400323 32.613068 -3.020363
2011-07-08 14:51:23 51°20.292 2°57.505 18.8086 4.404991 32.649886 -3.020363
2011-07-08 14:52:24 51°20.147 2°57.247 18.8192 4.411628 32.699321 -3.020363
2011-07-08 14:53:23 51°20.015 2°56.987 18.8264 4.421586 32.776263 -3.020363
2011-07-08 14:54:23 51°19.88 2°56.724 18.8363 4.431024 32.846422 -3.020363
2011-07-08 14:55:24 51°19.737 2°56.466 18.8507 4.438077 32.896175 -3.020363
2011-07-08 14:56:24 51°19.598 2°56.21 18.8656 4.454985 33.025745 -3.020363
2011-07-08 14:57:23 51°19.464 2°55.955 18.8733 4.468677 33.127398 -3.020363
2011-07-08 14:58:24 51°19.321 2°55.699 18.8812 4.485274 33.258798 -3.020363
2011-07-08 14:59:24 51°19.187 2°55.439 18.8836 4.496685 33.350342 -3.020363
2011-07-08 15:00:23 51°19.047 2°55.191 18.8825 4.499174 33.367851 -3.020363
2011-07-08 15:01:23 51°18.909 2°54.932 18.8576 4.518367 33.534817 -3.020363
2011-07-08 15:02:24 51°18.769 2°54.674 18.8483 4.543992 33.764433 -3.020363
2011-07-08 15:03:24 51°18.629 2°54.42 18.8171 4.561733 33.922375 -3.020363
2011-07-08 15:04:23 51°18.491 2°54.173 18.7841 4.579579 34.096903 -3.020363
2011-07-08 15:05:24 51°18.348 2°53.92 18.7643 4.59037 34.210938 -3.020363
2011-07-08 15:06:24 51°18.21 2°53.666 18.7407 4.5967 34.279416 -3.020363
2011-07-08 15:07:23 51°18.069 2°53.427 18.7247 4.602926 34.348411 -3.020363
2011-07-08 15:08:24 51°17.927 2°53.174 18.7087 4.609359 34.417263 -3.020363
2011-07-08 15:09:24 51°17.794 2°52.919 18.6985 4.61102 34.444261 -3.020363
2011-07-08 15:10:25 51°17.635 2°52.703 18.6894 4.610293 34.445392 -3.020363
2011-07-08 15:11:23 51°17.455 2°52.568 18.7052 4.609152 34.437146 -3.020363
2011-07-08 15:12:24 51°17.251 2°52.527 18.6977 4.60801 34.419072 -3.020363
2011-07-08 15:13:24 51°17.049 2°52.593 18.6659 4.611331 34.459984 -3.020363
2011-07-08 15:14:24 51°16.853 2°52.704 18.6185 4.614963 34.519325 -3.020363
2011-07-08 15:15:24 51°16.656 2°52.813 18.6 4.616313 34.563578 -3.020363
2011-07-08 15:16:24 51°16.458 2°52.92 18.6018 4.616624 34.577408 -3.020363
2011-07-08 15:17:23 51°16.269 2°53.036 18.6211 4.615898 34.566692 -3.020363
2011-07-08 15:18:24 51°16.087 2°53.198 18.6766 4.614652 34.530538 -3.020363
2011-07-08 15:19:24 51°15.92 2°53.393 18.7716 4.61268 34.460127 -3.020363
2011-07-08 15:20:24 51°15.753 2°53.584 18.8276 4.605104 34.32878 -3.020363
2011-07-08 15:21:24 51°15.583 2°53.77 18.8521 4.598255 34.232591 -3.020363
2011-07-08 15:22:24 51°15.413 2°53.956 18.8569 4.59618 34.19972 -3.020363
2011-07-08 15:23:24 51°15.249 2°54.155 18.9107 4.603443 34.248597 -3.020363
2011-07-08 15:24:24 51°15.085 2°54.354 18.9475 4.610498 34.264587 -3.020363
2011-07-08 15:25:23 51°14.923 2°54.545 18.9772 4.612053 34.2484 -3.020363
2011-07-08 15:26:24 51°14.761 2°54.745 19.0154 4.615788 34.255537 -3.020363
2011-07-08 15:27:24 51°14.604 2°54.942 19.063 4.620665 34.258586 -3.020363
2011-07-08 15:28:24 51°14.442 2°55.133 19.0984 4.61558 34.186055 -3.020363
2011-07-08 15:29:24 51°14.303 2°55.269 19.3177 0.106972 0.600508 -3.020363
2011-07-08 15:30:23 51°14.195 2°55.365 19.3511 0.082603 0.459206 -3.020363
2011-07-08 15:31:24 51°14.073 2°55.453 19.3719 0.066872 0.369122 -3.020363
2011-07-08 15:32:24 51°13.928 2°55.554 19.4554 0.057927 0.31838 -3.020363
2011-07-08 15:33:23 51°13.813 2°55.642 19.5131 0.053094 0.291134 -3.020363
2011-07-08 15:34:24 51°13.742 2°55.746 19.5654 0.05001 0.273806 -3.020363
2011-07-08 15:35:24 51°13.69 2°55.856 19.6544 0.047645 0.260555 -3.020363
2011-07-08 15:36:24 51°13.654 2°55.951 19.7291 0.045795 0.250205 -3.020363
2011-07-08 15:37:24 51°13.64 2°56.016 19.7729 0.044458 0.242735 -3.020363